Погода в Гнилом

Россия / Курская область     51°39′26″N   36°59′13″E
темп.,
°C
ветер,
м/с
пор.,
м/с
влажн.,
%
обл.,
%
осадки,
мм/ч
давл.,
гПа
погр.,
м
21 января, пт
пт2100:00−6ю71594100 0.6 1008493
03:00−6ю71494100 0.9 1006463
06:00−5ю71495100 2.1 1003596
09:00−3ююз61096100 3.6 1002530
12:00−3юз61093100 0.3 1002799
15:00−4юз6128995 0.4 1003722
18:00−5ююз7149299 0.1 1003617
21:00−5ююз81592100 0.2 1003723
22 января, сб
сб2200:00−5ююз81593100 0.3 1004667
03:00−6ююз7149297 0.7 1004551
06:00−6ююз61294100 0.1 1005468
09:00−8ююз6119497 0.3 1007333
12:00−7ююз5109499 0.2 1009369
15:00−6ююз4894100 0.3 1010371
18:00−8ю369698 0.1 1012113
21:00−6ююз379392 0.2 1013140
23 января, вс
вс2300:00−9ю249787 0.1 101651
03:00−13ю229984 0.2 101721
06:00−16ююв2210092 0.0 102013
09:00−18вюв22100100 0.1 102313
12:00−10всв2498100 0.1 1024104
15:00−9св4897100 0.1 1024216
18:00−10св51295100 0.0 1026253
21:00−9ссв61394100 0.0 1026317
24 января, пн
пн2400:00−8ссв71695100 0.3 1025435
03:00−7св71495100 1.1 1025492
06:00−5св7149597 1.3 1024548
09:00−5всв71292100 1.4 1025541
12:00−6всв6109494 0.3 1027412
15:00−7всв5995100 0.3 1027368
18:00−8св4996100 0.0 1027235
21:00−12св4998100 0.1 1027138
25 января, вт
вт2500:00−15св3410096 0.0 102746
03:00−14св3599100 0.1 102661
06:00−14всв249897 0.1 102545
09:00−13в2398100 0.1 102544
12:00−8юв2495100 0.1 1024171
15:00−6юв249581 0.1 1022236
18:00−8юв239778 0.1 102253
21:00−9юв259879 0.3 102271